Time,TemperatureF,DewpointF,PressureIn,WindDirection,WindDirectionDegrees,WindSpeedMPH,WindSpeedGustMPH,Humidity,HourlyPrecipIn,Conditions,Clouds,dailyrainin,SoftwareType,DateUTC
2013-03-15 00:00:00,27.3,8.2,29.71,SE,135,8.3,8.3,44,0.00,,,-99.99,meteobridge,2013-03-15 04:00:00,
2013-03-15 00:01:00,27.3,8.2,29.71,SE,135,8.3,8.3,44,0.00,,,0.00,meteobridge,2013-03-15 04:01:00,
2013-03-15 00:06:00,27.3,8.2,29.71,SE,135,8.3,8.3,44,0.00,,,0.00,meteobridge,2013-03-15 04:06:00,
2013-03-15 00:11:00,26.8,7.3,29.72,South,180,6.9,10.7,43,0.00,,,0.00,meteobridge,2013-03-15 04:11:00,
2013-03-15 00:16:00,26.8,7.3,29.71,SE,135,6.0,6.0,43,0.00,,,0.00,meteobridge,2013-03-15 04:16:00,
2013-03-15 00:21:00,26.8,7.7,29.72,South,180,9.8,9.8,44,0.00,,,0.00,meteobridge,2013-03-15 04:21:00,
2013-03-15 00:26:00,26.8,8.2,29.72,South,180,8.3,8.3,45,0.00,,,0.00,meteobridge,2013-03-15 04:26:00,
2013-03-15 00:31:00,27.0,9.0,29.71,SW,225,9.8,9.8,46,0.00,,,0.00,meteobridge,2013-03-15 04:31:00,
2013-03-15 00:37:00,26.8,8.2,29.71,North,0,6.0,9.2,45,0.00,,,0.00,meteobridge,2013-03-15 04:37:00,
2013-03-15 00:42:00,27.0,8.4,29.72,South,180,9.8,9.8,45,0.00,,,0.00,meteobridge,2013-03-15 04:42:00,
2013-03-15 00:47:00,27.0,8.4,29.71,SE,135,6.0,9.8,45,0.00,,,0.00,meteobridge,2013-03-15 04:47:00,
2013-03-15 00:52:00,26.8,6.8,29.72,SE,135,4.5,9.8,42,0.00,,,0.00,meteobridge,2013-03-15 04:52:00,
2013-03-15 00:57:00,26.6,6.6,29.72,South,180,4.5,8.3,42,0.00,,,0.00,meteobridge,2013-03-15 04:57:00,
2013-03-15 01:02:00,26.4,7.5,29.72,SW,225,8.3,8.3,44,0.00,,,0.00,meteobridge,2013-03-15 05:02:00,
2013-03-15 01:08:00,26.4,7.5,29.72,SSW,203,9.8,9.8,44,0.00,,,0.00,meteobridge,2013-03-15 05:08:00,
2013-03-15 01:13:00,26.2,6.3,29.72,South,180,8.3,9.8,42,0.00,,,0.00,meteobridge,2013-03-15 05:13:00,
2013-03-15 01:18:00,26.1,6.6,29.72,SE,135,8.3,8.3,43,0.00,,,0.00,meteobridge,2013-03-15 05:18:00,
2013-03-15 01:23:00,26.1,7.2,29.72,West,270,9.2,9.2,44,0.00,,,0.00,meteobridge,2013-03-15 05:23:00,
2013-03-15 01:28:00,26.2,7.7,29.72,South,180,9.2,13.0,45,0.00,,,0.00,meteobridge,2013-03-15 05:28:00,
2013-03-15 01:33:00,26.2,7.7,29.72,SW,225,5.4,9.2,45,0.00,,,0.00,meteobridge,2013-03-15 05:33:00,
2013-03-15 01:39:00,26.2,7.7,29.72,South,180,6.0,8.3,45,0.00,,,0.00,meteobridge,2013-03-15 05:39:00,
2013-03-15 01:44:00,26.2,7.3,29.72,South,180,8.3,13.0,44,0.00,,,0.00,meteobridge,2013-03-15 05:44:00,
2013-03-15 01:49:00,26.2,7.3,29.72,West,270,4.5,9.8,44,0.00,,,0.00,meteobridge,2013-03-15 05:49:00,
2013-03-15 01:54:00,26.1,6.6,29.72,NE,45,8.3,9.2,43,0.00,,,0.00,meteobridge,2013-03-15 05:54:00,
2013-03-15 01:59:00,26.1,6.6,29.72,West,270,8.3,11.4,43,0.00,,,0.00,meteobridge,2013-03-15 05:59:00,
2013-03-15 02:04:00,26.1,6.1,29.73,South,180,7.6,7.6,42,0.00,,,0.00,meteobridge,2013-03-15 06:04:00,
2013-03-15 02:10:00,25.9,6.4,29.72,South,180,8.3,9.2,43,0.00,,,0.00,meteobridge,2013-03-15 06:10:00,
2013-03-15 02:15:00,25.7,6.8,29.72,South,180,10.7,10.7,44,0.00,,,0.00,meteobridge,2013-03-15 06:15:00,
2013-03-15 02:20:00,25.9,7.0,29.72,SE,135,7.6,8.3,44,0.00,,,0.00,meteobridge,2013-03-15 06:20:00,
2013-03-15 02:25:00,25.7,6.8,29.72,SE,135,9.2,9.8,44,0.00,,,0.00,meteobridge,2013-03-15 06:25:00,
2013-03-15 02:30:00,25.7,7.3,29.72,West,270,7.6,8.3,45,0.00,,,0.00,meteobridge,2013-03-15 06:30:00,
2013-03-15 02:35:00,25.7,6.8,29.72,SW,225,8.3,9.8,44,0.00,,,0.00,meteobridge,2013-03-15 06:35:00,
2013-03-15 02:40:00,25.5,6.6,29.72,NW,315,9.2,9.2,44,0.00,,,0.00,meteobridge,2013-03-15 06:40:00,
2013-03-15 02:46:00,25.5,6.6,29.72,South,180,9.8,9.8,44,0.00,,,0.00,meteobridge,2013-03-15 06:46:00,
2013-03-15 02:51:00,25.5,6.6,29.72,SE,135,8.3,8.3,44,0.00,,,0.00,meteobridge,2013-03-15 06:51:00,
2013-03-15 02:56:00,25.5,6.6,29.72,WSW,248,7.6,11.4,44,0.00,,,0.00,meteobridge,2013-03-15 06:56:00,
2013-03-15 03:01:00,25.5,6.6,29.72,South,180,6.9,6.9,44,0.00,,,0.00,meteobridge,2013-03-15 07:01:00,
2013-03-15 03:06:00,25.5,6.6,29.72,South,180,5.4,10.7,44,0.00,,,0.00,meteobridge,2013-03-15 07:06:00,
2013-03-15 03:11:00,25.5,6.6,29.72,SE,135,11.4,11.4,44,0.00,,,0.00,meteobridge,2013-03-15 07:11:00,
2013-03-15 03:16:00,25.3,6.4,29.72,South,180,9.2,9.8,44,0.00,,,0.00,meteobridge,2013-03-15 07:16:00,
2013-03-15 03:21:00,25.3,7.0,29.72,South,180,6.9,9.8,45,0.00,,,0.00,meteobridge,2013-03-15 07:21:00,
2013-03-15 03:26:00,25.5,8.1,29.72,SW,225,12.1,12.1,47,0.00,,,0.00,meteobridge,2013-03-15 07:26:00,
2013-03-15 03:31:00,25.3,7.0,29.72,SE,135,11.4,11.4,45,0.00,,,0.00,meteobridge,2013-03-15 07:31:00,
2013-03-15 03:37:00,25.2,7.3,29.72,West,270,7.6,9.8,46,0.00,,,0.00,meteobridge,2013-03-15 07:37:00,
2013-03-15 03:42:00,25.3,7.9,29.72,South,180,12.1,12.1,47,0.00,,,0.00,meteobridge,2013-03-15 07:42:00,
2013-03-15 03:47:00,25.2,7.3,29.72,SE,135,13.0,13.0,46,0.00,,,0.00,meteobridge,2013-03-15 07:47:00,
2013-03-15 03:52:00,25.0,6.6,29.72,South,180,8.3,13.0,45,0.00,,,0.00,meteobridge,2013-03-15 07:52:00,
2013-03-15 03:57:00,24.8,6.4,29.72,West,270,6.9,13.0,45,0.00,,,0.00,meteobridge,2013-03-15 07:57:00,
2013-03-15 04:02:00,24.8,7.0,29.72,SE,135,10.7,10.7,46,0.00,,,0.00,meteobridge,2013-03-15 08:02:00,
2013-03-15 04:08:00,25.0,7.5,29.72,SSW,203,13.6,13.6,47,0.00,,,0.00,meteobridge,2013-03-15 08:08:00,
2013-03-15 04:13:00,24.8,7.0,29.72,South,180,8.3,9.8,46,0.00,,,0.00,meteobridge,2013-03-15 08:13:00,
2013-03-15 04:18:00,24.8,7.3,29.72,SW,225,6.9,7.6,47,0.00,,,0.00,meteobridge,2013-03-15 08:18:00,
2013-03-15 04:23:00,25.0,8.1,29.72,South,180,7.6,12.1,48,0.00,,,0.00,meteobridge,2013-03-15 08:23:00,
2013-03-15 04:28:00,24.8,7.0,29.72,South,180,6.9,6.9,46,0.00,,,0.00,meteobridge,2013-03-15 08:28:00,
2013-03-15 04:33:00,24.6,6.8,29.72,South,180,13.0,13.0,46,0.00,,,0.00,meteobridge,2013-03-15 08:33:00,
2013-03-15 04:39:00,24.6,6.3,29.72,SW,225,9.8,12.1,45,0.00,,,0.00,meteobridge,2013-03-15 08:39:00,
2013-03-15 04:44:00,24.6,6.8,29.72,South,180,7.6,10.7,46,0.00,,,0.00,meteobridge,2013-03-15 08:44:00,
2013-03-15 04:49:00,24.6,7.3,29.72,SW,225,8.3,8.3,47,0.00,,,0.00,meteobridge,2013-03-15 08:49:00,
2013-03-15 04:54:00,24.6,7.3,29.72,NW,315,6.0,11.4,47,0.00,,,0.00,meteobridge,2013-03-15 08:54:00,
2013-03-15 04:59:00,24.4,7.2,29.72,WNW,293,6.0,9.8,47,0.00,,,0.00,meteobridge,2013-03-15 08:59:00,
2013-03-15 05:04:00,24.6,7.7,29.73,South,180,6.0,9.8,48,0.00,,,0.00,meteobridge,2013-03-15 09:04:00,
2013-03-15 05:10:00,24.6,7.3,29.73,SW,225,11.4,11.4,47,0.00,,,0.00,meteobridge,2013-03-15 09:10:00,
2013-03-15 05:15:00,24.4,6.6,29.73,South,180,6.9,10.7,46,0.00,,,0.00,meteobridge,2013-03-15 09:15:00,
2013-03-15 05:20:00,24.4,6.6,29.73,SW,225,6.9,6.9,46,0.00,,,0.00,meteobridge,2013-03-15 09:20:00,
2013-03-15 05:25:00,24.4,6.6,29.74,SW,225,7.6,9.2,46,0.00,,,0.00,meteobridge,2013-03-15 09:25:00,
2013-03-15 05:30:00,24.3,6.4,29.74,South,180,6.9,11.4,46,0.00,,,0.00,meteobridge,2013-03-15 09:30:00,
2013-03-15 05:35:00,24.3,6.4,29.74,SW,225,12.1,12.1,46,0.00,,,0.00,meteobridge,2013-03-15 09:35:00,
2013-03-15 05:40:00,24.3,6.4,29.74,East,90,6.0,9.2,46,0.00,,,0.00,meteobridge,2013-03-15 09:40:00,
2013-03-15 05:46:00,24.3,5.9,29.74,SW,225,9.2,13.6,45,0.00,,,0.00,meteobridge,2013-03-15 09:46:00,
2013-03-15 05:51:00,24.1,5.7,29.75,South,180,10.7,10.7,45,0.00,,,0.00,meteobridge,2013-03-15 09:51:00,
2013-03-15 05:56:00,24.1,5.7,29.75,NW,315,9.2,12.1,45,0.00,,,0.00,meteobridge,2013-03-15 09:56:00,
2013-03-15 06:01:00,24.1,5.7,29.75,South,180,6.9,6.9,45,0.00,,,0.00,meteobridge,2013-03-15 10:01:00,
2013-03-15 06:06:00,24.1,5.7,29.75,South,180,6.9,6.9,45,0.00,,,0.00,meteobridge,2013-03-15 10:06:00,
2013-03-15 06:11:00,24.3,6.4,29.75,South,180,5.4,7.6,46,0.00,,,0.00,meteobridge,2013-03-15 10:11:00,
2013-03-15 06:17:00,24.1,5.7,29.75,South,180,9.2,10.7,45,0.00,,,0.00,meteobridge,2013-03-15 10:17:00,
2013-03-15 06:22:00,23.9,5.2,29.75,SE,135,8.3,9.2,44,0.00,,,0.00,meteobridge,2013-03-15 10:22:00,
2013-03-15 06:27:00,23.9,5.2,29.75,South,180,6.0,6.9,44,0.00,,,0.00,meteobridge,2013-03-15 10:27:00,
2013-03-15 06:32:00,23.7,5.5,29.75,South,180,9.2,9.2,45,0.00,,,0.00,meteobridge,2013-03-15 10:32:00,
2013-03-15 06:37:00,23.7,5.5,29.76,South,180,8.3,8.3,45,0.00,,,0.00,meteobridge,2013-03-15 10:37:00,
2013-03-15 06:42:00,23.7,5.5,29.75,SW,225,9.2,11.4,45,0.00,,,0.00,meteobridge,2013-03-15 10:42:00,
2013-03-15 06:48:00,23.7,5.0,29.75,South,180,7.6,9.2,44,0.00,,,0.00,meteobridge,2013-03-15 10:48:00,
2013-03-15 06:53:00,23.7,5.0,29.76,WNW,293,10.7,11.4,44,0.00,,,0.00,meteobridge,2013-03-15 10:53:00,
2013-03-15 06:58:00,23.5,4.8,29.77,South,180,9.2,9.2,44,0.00,,,0.00,meteobridge,2013-03-15 10:58:00,
2013-03-15 07:03:00,23.5,4.8,29.76,South,180,12.1,12.1,44,0.00,,,0.00,meteobridge,2013-03-15 11:03:00,
2013-03-15 07:08:00,23.5,4.8,29.77,SSE,158,10.7,13.0,44,0.00,,,0.00,meteobridge,2013-03-15 11:08:00,
2013-03-15 07:13:00,23.5,4.8,29.76,East,90,6.0,8.3,44,0.00,,,0.00,meteobridge,2013-03-15 11:13:00,
2013-03-15 07:19:00,23.7,5.0,29.77,South,180,9.2,13.0,44,0.00,,,0.00,meteobridge,2013-03-15 11:19:00,
2013-03-15 07:24:00,23.5,4.3,29.77,SE,135,9.8,9.8,43,0.00,,,0.00,meteobridge,2013-03-15 11:24:00,
2013-03-15 07:29:00,23.5,4.3,29.76,East,90,6.0,14.5,43,0.00,,,0.00,meteobridge,2013-03-15 11:29:00,
2013-03-15 07:34:00,23.7,5.0,29.77,West,270,6.0,9.8,44,0.00,,,0.00,meteobridge,2013-03-15 11:34:00,
2013-03-15 07:39:00,23.7,5.0,29.76,North,0,5.4,10.7,44,0.00,,,0.00,meteobridge,2013-03-15 11:39:00,
2013-03-15 07:44:00,23.9,5.2,29.77,South,180,4.5,11.4,44,0.00,,,0.00,meteobridge,2013-03-15 11:44:00,
2013-03-15 07:50:00,24.1,5.4,29.77,SE,135,6.9,6.9,44,0.00,,,0.00,meteobridge,2013-03-15 11:50:00,
2013-03-15 07:55:00,24.3,5.5,29.77,West,270,6.9,14.5,44,0.00,,,0.00,meteobridge,2013-03-15 11:55:00,
2013-03-15 08:00:00,24.3,5.5,29.77,SE,135,13.0,13.0,44,0.00,,,0.00,meteobridge,2013-03-15 12:00:00,
2013-03-15 08:05:00,24.4,5.7,29.77,South,180,5.4,6.9,44,0.00,,,0.00,meteobridge,2013-03-15 12:05:00,
2013-03-15 08:10:00,25.0,5.7,29.76,WSW,248,6.0,6.0,43,0.00,,,0.00,meteobridge,2013-03-15 12:10:00,
2013-03-15 08:15:00,24.8,5.9,29.77,SW,225,5.4,9.2,44,0.00,,,0.00,meteobridge,2013-03-15 12:15:00,
2013-03-15 08:21:00,24.8,5.9,29.76,South,180,7.6,7.6,44,0.00,,,0.00,meteobridge,2013-03-15 12:21:00,
2013-03-15 08:26:00,25.0,6.1,29.77,South,180,8.3,8.3,44,0.00,,,0.00,meteobridge,2013-03-15 12:26:00,
2013-03-15 08:31:00,25.0,5.7,29.77,South,180,6.9,13.0,43,0.00,,,0.00,meteobridge,2013-03-15 12:31:00,
2013-03-15 08:36:00,25.0,5.7,29.77,SW,225,11.4,11.4,43,0.00,,,0.00,meteobridge,2013-03-15 12:36:00,
2013-03-15 08:41:00,24.8,5.5,29.77,SW,225,9.8,9.8,43,0.00,,,0.00,meteobridge,2013-03-15 12:41:00,
2013-03-15 08:47:00,24.8,5.5,29.77,West,270,13.0,13.6,43,0.00,,,0.00,meteobridge,2013-03-15 12:47:00,
2013-03-15 08:52:00,25.2,5.7,29.77,SE,135,13.0,13.0,43,0.00,,,0.00,meteobridge,2013-03-15 12:52:00,
2013-03-15 08:57:00,25.3,5.9,29.77,South,180,3.8,8.3,43,0.00,,,0.00,meteobridge,2013-03-15 12:57:00,
2013-03-15 09:02:00,25.5,6.1,29.77,South,180,11.4,11.4,43,0.00,,,0.00,meteobridge,2013-03-15 13:02:00,
2013-03-15 09:07:00,25.5,6.1,29.77,SSW,203,6.0,10.7,43,0.00,,,0.00,meteobridge,2013-03-15 13:07:00,
2013-03-15 09:12:00,25.7,6.3,29.77,South,180,10.7,10.7,43,0.00,,,0.00,meteobridge,2013-03-15 13:12:00,
2013-03-15 09:17:00,25.5,6.1,29.77,SE,135,11.4,11.4,43,0.00,,,0.00,meteobridge,2013-03-15 13:17:00,
2013-03-15 09:22:00,25.5,6.1,29.77,SW,225,7.6,7.6,43,0.00,,,0.00,meteobridge,2013-03-15 13:22:00,
2013-03-15 09:28:00,25.7,6.3,29.77,SW,225,6.9,7.6,43,0.00,,,0.00,meteobridge,2013-03-15 13:28:00,
2013-03-15 09:33:00,26.2,6.8,29.77,East,90,9.2,9.2,43,0.00,,,0.00,meteobridge,2013-03-15 13:33:00,
2013-03-15 09:38:00,26.2,6.8,29.77,SW,225,3.8,7.6,43,0.00,,,0.00,meteobridge,2013-03-15 13:38:00,
2013-03-15 09:43:00,26.6,6.6,29.77,South,180,6.9,6.9,42,0.00,,,0.00,meteobridge,2013-03-15 13:43:00,
2013-03-15 09:48:00,26.8,6.8,29.77,South,180,8.3,8.3,42,0.00,,,0.00,meteobridge,2013-03-15 13:48:00,
2013-03-15 09:53:00,26.8,6.8,29.77,SE,135,9.2,9.2,42,0.00,,,0.00,meteobridge,2013-03-15 13:53:00,
2013-03-15 09:58:00,27.1,7.2,29.77,South,180,4.5,9.2,42,0.00,,,0.00,meteobridge,2013-03-15 13:58:00,
2013-03-15 10:04:00,27.3,7.2,29.77,South,180,8.3,9.8,42,0.00,,,0.00,meteobridge,2013-03-15 14:04:00,
2013-03-15 10:09:00,28.4,10.2,29.77,WNW,293,4.5,8.3,46,0.00,,,0.00,meteobridge,2013-03-15 14:09:00,
2013-03-15 10:14:00,29.3,11.1,29.77,SW,225,7.6,8.3,46,0.00,,,0.00,meteobridge,2013-03-15 14:14:00,
2013-03-15 10:19:00,29.1,9.3,29.77,West,270,7.6,7.6,43,0.00,,,0.00,meteobridge,2013-03-15 14:19:00,
2013-03-15 10:24:00,30.6,10.2,29.77,South,180,6.9,9.8,42,0.00,,,0.00,meteobridge,2013-03-15 14:24:00,
2013-03-15 10:29:00,30.4,9.5,29.77,South,180,8.3,8.3,41,0.00,,,0.00,meteobridge,2013-03-15 14:29:00,
2013-03-15 10:35:00,28.8,9.1,29.76,South,180,9.8,9.8,43,0.00,,,0.00,meteobridge,2013-03-15 14:35:00,
2013-03-15 10:40:00,28.6,9.0,29.76,South,180,9.2,9.2,43,0.00,,,0.00,meteobridge,2013-03-15 14:40:00,
2013-03-15 10:45:00,30.0,10.2,29.76,SE,135,8.3,8.3,43,0.00,,,0.00,meteobridge,2013-03-15 14:45:00,
2013-03-15 10:50:00,30.0,9.7,29.76,SW,225,7.6,11.4,42,0.00,,,0.00,meteobridge,2013-03-15 14:50:00,
2013-03-15 10:55:00,30.7,9.3,29.76,South,180,6.9,9.8,40,0.00,,,0.00,meteobridge,2013-03-15 14:55:00,
2013-03-15 11:00:00,30.9,8.8,29.76,South,180,6.0,9.8,39,0.00,,,0.00,meteobridge,2013-03-15 15:00:00,
2013-03-15 11:06:00,30.7,9.9,29.76,SE,135,6.0,8.3,41,0.00,,,0.00,meteobridge,2013-03-15 15:06:00,
2013-03-15 11:11:00,31.8,9.7,29.76,SSW,203,6.0,9.2,39,0.00,,,0.00,meteobridge,2013-03-15 15:11:00,
2013-03-15 11:16:00,32.5,9.7,29.75,SE,135,7.6,8.3,38,0.00,,,0.00,meteobridge,2013-03-15 15:16:00,
2013-03-15 11:21:00,33.1,9.0,29.75,East,90,6.9,7.6,36,0.00,,,0.00,meteobridge,2013-03-15 15:21:00,
2013-03-15 11:26:00,32.9,8.2,29.75,South,180,4.5,9.2,35,0.00,,,0.00,meteobridge,2013-03-15 15:26:00,
2013-03-15 11:32:00,33.3,8.6,29.75,SW,225,7.6,7.6,35,0.00,,,0.00,meteobridge,2013-03-15 15:32:00,
2013-03-15 11:37:00,34.3,9.0,29.75,SW,225,6.9,7.6,34,0.00,,,0.00,meteobridge,2013-03-15 15:37:00,
2013-03-15 11:42:00,35.1,8.8,29.75,South,180,8.3,8.3,33,0.00,,,0.00,meteobridge,2013-03-15 15:42:00,
2013-03-15 11:47:00,34.7,7.9,29.75,East,90,7.6,8.3,32,0.00,,,0.00,meteobridge,2013-03-15 15:47:00,
2013-03-15 11:52:00,36.0,9.0,29.75,South,180,8.3,8.3,32,0.00,,,0.00,meteobridge,2013-03-15 15:52:00,
2013-03-15 11:57:00,36.0,6.8,29.75,South,180,9.2,9.2,29,0.00,,,0.00,meteobridge,2013-03-15 15:57:00,
2013-03-15 12:03:00,36.0,6.1,29.75,NW,315,4.5,7.6,28,0.00,,,0.00,meteobridge,2013-03-15 16:03:00,
2013-03-15 12:08:00,37.2,8.6,29.74,SW,225,3.8,4.5,30,0.00,,,0.00,meteobridge,2013-03-15 16:08:00,
2013-03-15 12:13:00,37.4,10.9,29.74,SW,225,8.3,10.7,33,0.00,,,0.00,meteobridge,2013-03-15 16:13:00,
2013-03-15 12:18:00,36.1,6.1,29.74,South,180,6.9,7.6,28,0.00,,,0.00,meteobridge,2013-03-15 16:18:00,
2013-03-15 12:23:00,37.2,8.6,29.74,NW,315,9.2,9.2,30,0.00,,,0.00,meteobridge,2013-03-15 16:23:00,
2013-03-15 12:28:00,37.8,11.3,29.74,SW,225,7.6,7.6,33,0.00,,,0.00,meteobridge,2013-03-15 16:28:00,
2013-03-15 12:34:00,37.8,9.9,29.73,South,180,6.0,10.7,31,0.00,,,0.00,meteobridge,2013-03-15 16:34:00,
2013-03-15 12:39:00,37.8,10.6,29.73,SE,135,5.4,6.9,32,0.00,,,0.00,meteobridge,2013-03-15 16:39:00,
2013-03-15 12:44:00,38.7,11.3,29.72,South,180,8.3,8.3,32,0.00,,,0.00,meteobridge,2013-03-15 16:44:00,
2013-03-15 12:49:00,38.3,10.2,29.72,SW,225,3.8,8.3,31,0.00,,,0.00,meteobridge,2013-03-15 16:49:00,
2013-03-15 12:54:00,38.1,10.2,29.72,South,180,5.4,6.9,31,0.00,,,0.00,meteobridge,2013-03-15 16:54:00,
2013-03-15 12:59:00,39.2,10.4,29.71,South,180,6.9,8.3,30,0.00,,,0.00,meteobridge,2013-03-15 16:59:00,
2013-03-15 13:05:00,39.2,11.1,29.71,NW,315,3.1,6.0,31,0.00,,,0.00,meteobridge,2013-03-15 17:05:00,
2013-03-15 13:10:00,39.9,10.9,29.71,South,180,4.5,5.4,30,0.00,,,0.00,meteobridge,2013-03-15 17:10:00,
2013-03-15 13:15:00,42.1,12.0,29.71,SE,135,5.4,8.3,29,0.00,,,0.00,meteobridge,2013-03-15 17:15:00,
2013-03-15 13:20:00,41.2,9.7,29.70,South,180,6.0,7.6,27,0.00,,,0.00,meteobridge,2013-03-15 17:20:00,
2013-03-15 13:25:00,41.2,9.7,29.70,SE,135,2.2,6.0,27,0.00,,,0.00,meteobridge,2013-03-15 17:25:00,
2013-03-15 13:30:00,41.4,9.9,29.70,SE,135,5.4,8.3,27,0.00,,,0.00,meteobridge,2013-03-15 17:30:00,
2013-03-15 13:35:00,41.0,9.5,29.70,South,180,5.4,6.9,27,0.00,,,0.00,meteobridge,2013-03-15 17:35:00,
2013-03-15 13:41:00,41.9,10.4,29.69,SW,225,3.8,4.5,27,0.00,,,0.00,meteobridge,2013-03-15 17:41:00,
2013-03-15 13:46:00,42.8,9.3,29.69,North,0,4.5,6.9,25,0.00,,,0.00,meteobridge,2013-03-15 17:46:00,
2013-03-15 13:51:00,42.4,10.0,29.69,North,0,6.0,6.0,26,0.00,,,0.00,meteobridge,2013-03-15 17:51:00,
2013-03-15 13:56:00,42.4,10.0,29.68,South,180,7.6,7.6,26,0.00,,,0.00,meteobridge,2013-03-15 17:56:00,
2013-03-15 14:01:00,42.4,10.0,29.68,East,90,5.4,5.4,26,0.00,,,0.00,meteobridge,2013-03-15 18:01:00,
2013-03-15 14:06:00,43.0,10.4,29.67,SE,135,6.0,6.9,26,0.00,,,0.00,meteobridge,2013-03-15 18:06:00,
2013-03-15 14:11:00,42.6,10.0,29.67,NNE,23,5.4,6.9,26,0.00,,,0.00,meteobridge,2013-03-15 18:11:00,
2013-03-15 14:17:00,42.4,10.8,29.67,SW,225,3.8,6.0,27,0.00,,,0.00,meteobridge,2013-03-15 18:17:00,
2013-03-15 14:22:00,42.6,10.0,29.67,NW,315,1.6,6.0,26,0.00,,,0.00,meteobridge,2013-03-15 18:22:00,
2013-03-15 14:27:00,44.1,10.4,29.66,SE,135,3.1,9.2,25,0.00,,,0.00,meteobridge,2013-03-15 18:27:00,
2013-03-15 14:32:00,45.0,10.4,29.66,SE,135,6.9,6.9,24,0.00,,,0.00,meteobridge,2013-03-15 18:32:00,
2013-03-15 14:37:00,45.0,10.4,29.65,North,0,2.2,2.2,24,0.00,,,0.00,meteobridge,2013-03-15 18:37:00,
2013-03-15 14:42:00,45.5,9.9,29.65,East,90,3.8,5.4,23,0.00,,,0.00,meteobridge,2013-03-15 18:42:00,
2013-03-15 14:47:00,44.4,9.9,29.65,SW,225,5.4,5.4,24,0.00,,,0.00,meteobridge,2013-03-15 18:47:00,
2013-03-15 14:52:00,42.8,9.3,29.65,SSE,158,3.8,6.0,25,0.00,,,0.00,meteobridge,2013-03-15 18:52:00,
2013-03-15 14:58:00,43.3,9.0,29.64,East,90,6.0,6.0,24,0.00,,,0.00,meteobridge,2013-03-15 18:58:00,
2013-03-15 15:03:00,42.6,9.3,29.64,NE,45,2.2,6.9,25,0.00,,,0.00,meteobridge,2013-03-15 19:03:00,
2013-03-15 15:08:00,43.5,10.0,29.64,South,180,4.5,4.5,25,0.00,,,0.00,meteobridge,2013-03-15 19:08:00,
2013-03-15 15:13:00,44.6,9.1,29.64,SE,135,5.4,6.0,23,0.00,,,0.00,meteobridge,2013-03-15 19:13:00,
2013-03-15 15:18:00,44.4,10.8,29.63,SE,135,4.5,4.5,25,0.00,,,0.00,meteobridge,2013-03-15 19:18:00,
2013-03-15 15:23:00,43.9,10.4,29.63,East,90,5.4,5.4,25,0.00,,,0.00,meteobridge,2013-03-15 19:23:00,
2013-03-15 15:28:00,43.5,9.1,29.63,South,180,4.5,6.9,24,0.00,,,0.00,meteobridge,2013-03-15 19:28:00,
2013-03-15 15:34:00,44.8,10.2,29.63,ENE,68,3.1,3.8,24,0.00,,,0.00,meteobridge,2013-03-15 19:34:00,
2013-03-15 15:39:00,45.5,9.9,29.62,NNE,23,3.8,3.8,23,0.00,,,0.00,meteobridge,2013-03-15 19:39:00,
2013-03-15 15:44:00,45.7,10.0,29.62,NE,45,5.4,5.4,23,0.00,,,0.00,meteobridge,2013-03-15 19:44:00,
2013-03-15 15:49:00,46.0,11.3,29.62,SE,135,2.2,2.2,24,0.00,,,0.00,meteobridge,2013-03-15 19:49:00,
2013-03-15 15:54:00,45.9,10.2,29.62,NE,45,6.9,6.9,23,0.00,,,0.00,meteobridge,2013-03-15 19:54:00,
2013-03-15 15:59:00,45.5,9.9,29.61,NE,45,5.4,5.4,23,0.00,,,0.00,meteobridge,2013-03-15 19:59:00,
2013-03-15 16:05:00,45.9,10.2,29.61,East,90,4.5,5.4,23,0.00,,,0.00,meteobridge,2013-03-15 20:05:00,
2013-03-15 16:10:00,44.4,9.9,29.61,SE,135,5.4,5.4,24,0.00,,,0.00,meteobridge,2013-03-15 20:10:00,
2013-03-15 16:15:00,43.9,10.4,29.61,East,90,4.5,4.5,25,0.00,,,0.00,meteobridge,2013-03-15 20:15:00,
2013-03-15 16:20:00,43.2,9.7,29.61,East,90,4.5,6.9,25,0.00,,,0.00,meteobridge,2013-03-15 20:20:00,
2013-03-15 16:25:00,42.4,12.4,29.61,SE,135,6.9,6.9,29,0.00,,,0.00,meteobridge,2013-03-15 20:25:00,
2013-03-15 16:30:00,40.8,14.5,29.61,North,0,3.8,5.4,34,0.00,,,0.00,meteobridge,2013-03-15 20:30:00,
2013-03-15 16:35:00,39.6,14.2,29.60,NE,45,6.9,9.2,35,0.00,,,0.00,meteobridge,2013-03-15 20:35:00,
2013-03-15 16:41:00,39.0,17.2,29.61,East,90,6.0,7.6,41,0.00,,,0.00,meteobridge,2013-03-15 20:41:00,
2013-03-15 16:46:00,38.8,19.4,29.60,East,90,7.6,7.6,45,0.00,,,0.00,meteobridge,2013-03-15 20:46:00,
2013-03-15 16:51:00,39.2,19.0,29.60,East,90,3.1,6.9,44,0.00,,,0.00,meteobridge,2013-03-15 20:51:00,
2013-03-15 16:56:00,38.8,19.4,29.60,East,90,7.6,7.6,45,0.00,,,0.00,meteobridge,2013-03-15 20:56:00,
2013-03-15 17:01:00,37.9,19.6,29.59,NE,45,5.4,5.4,47,0.00,,,0.00,meteobridge,2013-03-15 21:01:00,
2013-03-15 17:06:00,37.8,19.8,29.60,South,180,2.2,4.5,48,0.00,,,0.00,meteobridge,2013-03-15 21:06:00,
2013-03-15 17:11:00,38.1,20.7,29.60,NNE,23,4.5,4.5,49,0.00,,,0.00,meteobridge,2013-03-15 21:11:00,
2013-03-15 17:16:00,38.1,21.2,29.60,ENE,68,10.7,10.7,50,0.00,,,0.00,meteobridge,2013-03-15 21:16:00,
2013-03-15 17:21:00,38.3,20.8,29.59,NW,315,2.2,6.0,49,0.00,,,0.00,meteobridge,2013-03-15 21:21:00,
2013-03-15 17:27:00,38.1,20.7,29.59,North,0,9.8,9.8,49,0.00,,,0.00,meteobridge,2013-03-15 21:27:00,
2013-03-15 17:32:00,37.9,19.0,29.59,NE,45,6.9,11.4,46,0.00,,,0.00,meteobridge,2013-03-15 21:32:00,
2013-03-15 17:37:00,37.8,18.9,29.59,NE,45,5.4,8.3,46,0.00,,,0.00,meteobridge,2013-03-15 21:37:00,
2013-03-15 17:42:00,37.8,19.4,29.59,North,0,9.8,9.8,47,0.00,,,0.00,meteobridge,2013-03-15 21:42:00,
2013-03-15 17:47:00,37.8,19.8,29.59,SW,225,5.4,6.9,48,0.00,,,0.00,meteobridge,2013-03-15 21:47:00,
2013-03-15 17:52:00,37.6,19.6,29.59,NE,45,9.8,9.8,48,0.00,,,0.00,meteobridge,2013-03-15 21:52:00,
2013-03-15 17:57:00,37.4,19.6,29.59,South,180,6.0,7.6,48,0.00,,,0.00,meteobridge,2013-03-15 21:57:00,
2013-03-15 18:02:00,37.4,19.9,29.59,North,0,3.1,9.8,49,0.00,,,0.00,meteobridge,2013-03-15 22:02:00,
2013-03-15 18:07:00,37.4,19.9,29.59,SE,135,6.9,6.9,49,0.00,,,0.00,meteobridge,2013-03-15 22:07:00,
2013-03-15 18:13:00,37.4,20.5,29.59,East,90,4.5,6.9,50,0.00,,,0.00,meteobridge,2013-03-15 22:13:00,
2013-03-15 18:18:00,37.4,19.9,29.58,SE,135,4.5,9.2,49,0.00,,,0.00,meteobridge,2013-03-15 22:18:00,
2013-03-15 18:23:00,37.4,20.8,29.59,NE,45,4.5,9.2,51,0.00,,,0.00,meteobridge,2013-03-15 22:23:00,
2013-03-15 18:28:00,37.2,19.4,29.59,NE,45,4.5,7.6,48,0.00,,,0.00,meteobridge,2013-03-15 22:28:00,
2013-03-15 18:33:00,37.2,20.8,29.59,SW,225,5.4,8.3,51,0.00,,,0.00,meteobridge,2013-03-15 22:33:00,
2013-03-15 18:38:00,37.0,20.7,29.58,NE,45,3.8,5.4,51,0.00,,,0.00,meteobridge,2013-03-15 22:38:00,
2013-03-15 18:44:00,36.9,20.8,29.59,NE,45,4.5,6.9,52,0.00,,,0.00,meteobridge,2013-03-15 22:44:00,
2013-03-15 18:49:00,36.9,21.4,29.59,North,0,2.2,6.9,53,0.00,,,0.00,meteobridge,2013-03-15 22:49:00,
2013-03-15 18:54:00,37.0,21.6,29.59,NE,45,7.6,9.2,53,0.00,,,0.00,meteobridge,2013-03-15 22:54:00,
2013-03-15 18:59:00,37.2,21.2,29.59,NE,45,2.2,6.9,52,0.00,,,0.00,meteobridge,2013-03-15 22:59:00,
2013-03-15 19:04:00,37.2,21.7,29.59,South,180,2.2,7.6,53,0.00,,,0.00,meteobridge,2013-03-15 23:04:00,
2013-03-15 19:09:00,37.0,21.0,29.59,North,0,6.0,6.0,52,0.00,,,0.00,meteobridge,2013-03-15 23:09:00,
2013-03-15 19:15:00,37.2,21.7,29.59,North,0,6.0,6.9,53,0.00,,,0.00,meteobridge,2013-03-15 23:15:00,
2013-03-15 19:20:00,37.2,22.1,29.59,North,0,4.5,11.4,54,0.00,,,0.00,meteobridge,2013-03-15 23:20:00,
2013-03-15 19:25:00,37.2,22.1,29.59,NE,45,6.9,7.6,54,0.00,,,0.00,meteobridge,2013-03-15 23:25:00,
2013-03-15 19:30:00,37.2,22.5,29.58,East,90,9.2,9.2,55,0.00,,,0.00,meteobridge,2013-03-15 23:30:00,
2013-03-15 19:35:00,37.2,23.0,29.58,SW,225,6.0,9.8,56,0.00,,,0.00,meteobridge,2013-03-15 23:35:00,
2013-03-15 19:40:00,37.2,23.7,29.58,East,90,9.2,9.2,58,0.00,,,0.00,meteobridge,2013-03-15 23:40:00,
2013-03-15 19:46:00,37.2,23.7,29.59,NE,45,6.0,8.3,58,0.00,,,0.00,meteobridge,2013-03-15 23:46:00,
2013-03-15 19:51:00,37.4,25.5,29.59,NE,45,13.0,13.0,62,0.00,,,0.00,meteobridge,2013-03-15 23:51:00,
2013-03-15 19:57:00,37.4,25.5,29.59,South,180,2.2,9.2,62,0.00,,,0.00,meteobridge,2013-03-15 23:57:00,
2013-03-15 20:02:00,37.4,25.9,29.59,NNE,23,3.8,6.0,63,0.00,,,0.00,meteobridge,2013-03-16 00:02:00,
2013-03-15 20:07:00,37.4,25.9,29.59,North,0,7.6,7.6,63,0.00,,,0.00,meteobridge,2013-03-16 00:07:00,
2013-03-15 20:12:00,37.4,25.9,29.59,SE,135,4.5,6.9,63,0.00,,,0.00,meteobridge,2013-03-16 00:12:00,
2013-03-15 20:17:00,37.4,25.9,29.60,NE,45,4.5,6.0,63,0.00,,,0.00,meteobridge,2013-03-16 00:17:00,
2013-03-15 20:22:00,37.4,25.9,29.59,East,90,4.5,6.0,63,0.00,,,0.00,meteobridge,2013-03-16 00:22:00,
2013-03-15 20:28:00,37.4,25.9,29.59,NW,315,3.8,6.9,63,0.00,,,0.00,meteobridge,2013-03-16 00:28:00,
2013-03-15 20:33:00,37.4,25.9,29.59,NE,45,6.9,6.9,63,0.00,,,0.00,meteobridge,2013-03-16 00:33:00,
2013-03-15 20:38:00,37.4,25.9,29.59,SE,135,5.4,5.4,63,0.00,,,0.00,meteobridge,2013-03-16 00:38:00,
2013-03-15 20:43:00,37.4,25.9,29.59,SW,225,3.8,3.8,63,0.00,,,0.00,meteobridge,2013-03-16 00:43:00,
2013-03-15 20:48:00,37.2,24.3,29.59,SE,135,5.4,6.0,59,0.00,,,0.00,meteobridge,2013-03-16 00:48:00,
2013-03-15 20:53:00,37.2,24.6,29.59,South,180,4.5,4.5,60,0.00,,,0.00,meteobridge,2013-03-16 00:53:00,
2013-03-15 20:59:00,37.2,25.0,29.59,South,180,8.3,8.3,61,0.00,,,0.00,meteobridge,2013-03-16 00:59:00,
2013-03-15 21:04:00,37.2,25.0,29.59,East,90,6.0,6.9,61,0.00,,,0.00,meteobridge,2013-03-16 01:04:00,
2013-03-15 21:09:00,37.2,25.0,29.59,NE,45,3.8,4.5,61,0.00,,,0.00,meteobridge,2013-03-16 01:09:00,
2013-03-15 21:14:00,37.2,25.3,29.59,SW,225,4.5,9.8,62,0.00,,,0.00,meteobridge,2013-03-16 01:14:00,
2013-03-15 21:19:00,37.4,27.1,29.59,SSW,203,6.0,6.0,66,0.00,,,0.00,meteobridge,2013-03-16 01:19:00,
2013-03-15 21:24:00,37.4,27.1,29.59,NE,45,4.5,6.0,66,0.00,,,0.00,meteobridge,2013-03-16 01:24:00,
2013-03-15 21:30:00,37.6,27.3,29.59,NW,315,4.5,6.9,66,0.00,,,0.00,meteobridge,2013-03-16 01:30:00,
2013-03-15 21:35:00,37.6,27.3,29.60,NW,315,4.5,6.9,66,0.00,,,0.00,meteobridge,2013-03-16 01:35:00,
2013-03-15 21:40:00,37.8,27.1,29.59,North,0,4.5,9.2,65,0.00,,,0.00,meteobridge,2013-03-16 01:40:00,
2013-03-15 21:45:00,37.9,27.1,29.60,East,90,4.5,9.2,65,0.00,,,0.00,meteobridge,2013-03-16 01:45:00,
2013-03-15 21:50:00,37.8,27.1,29.60,East,90,4.5,6.9,65,0.00,,,0.00,meteobridge,2013-03-16 01:50:00,
2013-03-15 21:55:00,37.8,27.1,29.59,North,0,3.1,4.5,65,0.00,,,0.00,meteobridge,2013-03-16 01:55:00,
2013-03-15 22:01:00,37.8,27.1,29.59,ESE,113,6.0,6.0,65,0.00,,,0.00,meteobridge,2013-03-16 02:01:00,
2013-03-15 22:06:00,37.8,27.1,29.59,SE,135,6.0,6.0,65,0.00,,,0.00,meteobridge,2013-03-16 02:06:00,
2013-03-15 22:11:00,37.6,27.0,29.59,SE,135,7.6,7.6,65,0.00,,,0.00,meteobridge,2013-03-16 02:11:00,
2013-03-15 22:16:00,37.6,27.3,29.60,SE,135,8.3,9.2,66,0.00,,,0.00,meteobridge,2013-03-16 02:16:00,
2013-03-15 22:22:00,37.6,27.3,29.59,SW,225,3.8,3.8,66,0.00,,,0.00,meteobridge,2013-03-16 02:22:00,
2013-03-15 22:27:00,37.6,27.3,29.59,SW,225,3.1,5.4,66,0.00,,,0.00,meteobridge,2013-03-16 02:27:00,
2013-03-15 22:32:00,37.6,27.3,29.59,NE,45,4.5,4.5,66,0.00,,,0.00,meteobridge,2013-03-16 02:32:00,
2013-03-15 22:37:00,37.6,27.3,29.59,East,90,5.4,6.9,66,0.00,,,0.00,meteobridge,2013-03-16 02:37:00,
2013-03-15 22:42:00,37.4,26.8,29.59,ENE,68,4.5,4.5,65,0.00,,,0.00,meteobridge,2013-03-16 02:42:00,
2013-03-15 22:47:00,37.4,27.1,29.59,South,180,5.4,5.4,66,0.00,,,0.00,meteobridge,2013-03-16 02:47:00,
2013-03-15 22:52:00,37.2,25.3,29.59,NW,315,6.0,6.0,62,0.00,,,0.00,meteobridge,2013-03-16 02:52:00,
2013-03-15 22:58:00,37.4,27.1,29.59,NW,315,3.8,6.9,66,0.00,,,0.00,meteobridge,2013-03-16 02:58:00,
2013-03-15 23:03:00,37.4,27.1,29.59,North,0,6.0,6.0,66,0.00,,,0.00,meteobridge,2013-03-16 03:03:00,
2013-03-15 23:08:00,37.4,27.1,29.58,SE,135,6.9,6.9,66,0.00,,,0.00,meteobridge,2013-03-16 03:08:00,
2013-03-15 23:13:00,37.4,27.1,29.58,East,90,2.2,5.4,66,0.00,,,0.00,meteobridge,2013-03-16 03:13:00,
2013-03-15 23:18:00,37.4,27.1,29.59,ENE,68,6.9,6.9,66,0.00,,,0.00,meteobridge,2013-03-16 03:18:00,
2013-03-15 23:23:00,37.4,27.1,29.59,SW,225,4.5,6.0,66,0.00,,,0.00,meteobridge,2013-03-16 03:23:00,
2013-03-15 23:29:00,37.4,27.5,29.59,SW,225,6.0,7.6,67,0.00,,,0.00,meteobridge,2013-03-16 03:29:00,
2013-03-15 23:34:00,37.2,25.7,29.59,South,180,2.2,2.2,63,0.00,,,0.00,meteobridge,2013-03-16 03:34:00,
2013-03-15 23:39:00,37.0,25.7,29.59,North,0,3.8,3.8,63,0.00,,,0.00,meteobridge,2013-03-16 03:39:00,
2013-03-15 23:44:00,37.0,25.7,29.59,South,180,3.8,3.8,63,0.00,,,0.00,meteobridge,2013-03-16 03:44:00,
2013-03-15 23:49:00,37.0,25.7,29.58,NE,45,9.8,9.8,63,0.00,,,0.00,meteobridge,2013-03-16 03:49:00,
2013-03-15 23:54:00,37.0,25.7,29.59,SE,135,9.2,9.2,63,0.00,,,0.00,meteobridge,2013-03-16 03:54:00,